This is the latest recevied weather packets stored in our database for station/object N5PA. If no packets are shown the sender has not sent any weather packets the latest 10 day(s).
| Time | Temp. | Humidity | Pressure | Rain* | Wind** | Luminosity | Snow |
|---|---|---|---|---|---|---|---|
| 1778174708 | 21.11° C | 73% | 1015.5 hPa | 0 mm | - | 1037 W/m² | - |
| 1778174409 | 21.11° C | 74% | 1015.5 hPa | 0 mm | - | 1035 W/m² | - |
| 1778174107 | 21.11° C | 74% | 1015.6 hPa | 0 mm | - | 1035 W/m² | - |
| 1778173808 | 21.11° C | 74% | 1015.6 hPa | 0 mm | - | 1034 W/m² | - |
| 1778173508 | 21.11° C | 74% | 1015.6 hPa | 0 mm | - | 1035 W/m² | - |
| 1778173208 | 21.11° C | 74% | 1015.6 hPa | 0 mm | - | 1034 W/m² | - |
| 1778172907 | 21.11° C | 74% | 1015.5 hPa | 0 mm | - | 1034 W/m² | - |
| 1778172607 | 21.11° C | 74% | 1015.5 hPa | 0 mm | - | 1034 W/m² | - |
| 1778172309 | 21.11° C | 74% | 1015.6 hPa | 0 mm | - | 1034 W/m² | - |
| 1778172007 | 21.11° C | 74% | 1015.5 hPa | 0 mm | - | 1032 W/m² | - |
| 1778171707 | 20.56° C | 74% | 1015.6 hPa | 0 mm | - | 1032 W/m² | - |
| 1778171407 | 20.56° C | 74% | 1015.6 hPa | 0 mm | - | 1032 W/m² | - |
| 1778171109 | 20.56° C | 74% | 1015.6 hPa | 0 mm | - | 1034 W/m² | - |
| 1778170808 | 20° C | 73% | 1015.7 hPa | 0 mm | - | 1034 W/m² | - |
| 1778170508 | 20° C | 73% | 1015.7 hPa | 0 mm | - | 1034 W/m² | - |
| 1778170207 | 20° C | 74% | 1015.8 hPa | 0 mm | - | 1032 W/m² | - |
| 1778169907 | 20° C | 74% | 1015.8 hPa | 0 mm | - | 1028 W/m² | - |
| 1778169606 | 20° C | 74% | 1015.7 hPa | 0 mm | - | 1030 W/m² | - |
| 1778169306 | 20.56° C | 74% | 1015.6 hPa | 0 mm | - | 1028 W/m² | - |
| 1778169008 | 20.56° C | 72% | 1015.5 hPa | 0 mm | - | 1025 W/m² | - |
| 1778168708 | 20° C | 71% | 1015.5 hPa | 0 mm | - | 1025 W/m² | - |
| 1778168407 | 19.44° C | 72% | 1015.2 hPa | 0 mm | - | 1025 W/m² | - |
| 1778168108 | 19.44° C | 70% | 1015.3 hPa | 0 mm | - | 1025 W/m² | - |
| 1778167808 | 19.44° C | 66% | 1015.2 hPa | 0 mm | - | 1025 W/m² | - |
| 1778167508 | 18.89° C | 63% | 1015.1 hPa | 0 mm | - | 1027 W/m² | - |
* Rain latest hour (hover to see other rain measurements)
** Current wind speed in m/s (hover to see current wind gust speed)